Location: Houhaj�rvi
(61.2833°N, 23.0000°E)
Time: 19:12:57
(UTC+00:00)

Cosmos 2278 Rocket - Pass Details

Date: 27 February 2020
Orbit: 840 x 846 km, 71.0° (Epoch: 05 April)

Event Time Altitude Azimuth Distance (km) Brightness Sun altitude
Rises 21:36:35 0° 315° (NW) 3,412 6.2 -35.7°
Reaches altitude 10° 21:39:03 10° 318° (NW) 2,476 5.3 -35.8°
Enters shadow 21:42:26 37° 330° (NNW) 1,306 3.5 -35.9°
